SCP
0 0 0 0 0 0 0 0 0 0 0 0 0 0 0 -0 -0 -0 -0 -0 -0 -0 0 0 0 0 0 0 0 0 0 0 0 0 1 1 1 0 0 0 1 0 0 0
0 0 0 0 0 0 0 0 0 0 0 0 0 0 0 0 -0 -0 0 0 -0 0 0 0 0 0 0 0 0 0 0 0 0 1 1 1 1 1 1 1 1 1 1 0
0 0 0 0 0 0 0 0 0 0 0 0 0 0 0 0 0 0 0 0 0 0 0 0 -0 0 0 0 0 0 0 0 0 0 0 0 0 1 1 1 1 1 1 1
0 0 0 0 0 0 0 0 0 0 0 0 0 0 0 0 0 0 0 0 0 0 0 1 0 0 0 0 0 0 0 0 0 0 0 0 0 0 0 0 1 1 1 1
0 0 0 0 0 0 0 0 0 0 0 0 0 0 0 0 0 0 0 0 1 0 0 1 0 0 0 0 0 0 0 0 0 0 0 0 0 0 0 0 0 0 1 1
0 0 0 0 0 0 0 0 0 1 0 0 0 0 0 1 0 0 0 1 0 0 0 0 0 0 0 0 0 0 0 0 0 0 0 0 0 0 0 0 0 0 0 0
0 0 0 0 0 0 0 0 0 1 1 1 0 0 1 1 0 1 1 1 1 1 0 0 0 0 0 0 0 0 0 0 0 0 0 0 0 0 0 0 0 0 0 0
0 0 0 0 0 0 0 0 0 0 0 1 1 1 1 1 1 0 0 1 1 1 1 1 0 0 0 0 1 1 0 0 0 0 0 0 0 0 0 0 0 0 0 0
0 1 0 0 0 0 0 0 0 0 0 0 1 1 1 2 1 1 0 0 1 1 1 1 0 0 0 1 1 0 0 0 0 0 0 0 0 0 0 0 0 0 0 0
0 0 0 0 0 0 0 0 0 0 0 0 1 1 1 1 1 1 0 -0 1 3 2 2 1 1 1 0 0 0 0 0 0 0 0 0 0 0 0 0 0 0 0 0
0 0 0 0 0 0 0 0 0 0 0 0 0 1 1 2 2 1 1 0 2 3 3 2 1 1 0 0 0 0 0 0 0 0 0 0 0 0 0 0 0 0 0 0
0 0 0 0 0 0 0 0 0 0 0 1 0 1 1 1 1 1 1 0 3 4 2 1 1 0 0 0 0 0 0 0 0 0 0 0 0 0 0 0 0 0 0 0
-0 -0 -0 0 0 0 0 0 0 0 0 0 0 0 1 1 1 1 0 0 2 2 3 2 1 1 0 0 0 0 0 0 0 0 0 0 0 0 0 0 0 0 0 0
0 -0 -0 -0 -0 0 0 0 0 0 0 0 0 0 1 2 2 1 0 0 2 2 1 1 1 1 0 -0 -0 0 0 0 0 0 0 0 0 0 0 0 0 0 0 0
0 -0 0 -0 0 0 0 0 0 0 0 0 0 0 1 1 1 1 0 0 1 1 0 1 1 1 0 0 -0 0 0 0 0 0 0 0 0 0 0 0 0 0 0 0
-0 0 0 -0 -0 -0 0 0 0 0 0 0 0 0 0 0 0 1 0 0 0 1 1 1 1 1 1 1 0 0 0 0 0 0 0 0 0 0 0 0 0 0 0 0
-0 -0 -0 -0 -0 0 0 0 0 0 0 0 0 0 0 0 0 0 0 0 0 0 0 0 0 1 0 0 0 0 0 0 0 0 0 0 0 0 0 0 0 0 0 0
-0 -0 -0 -0 -0 -0 0 0 0 0 0 0 0 0 0 0 0 0 0 0 0 0 0 0 0 0 0 0 0 0 0 0 0 0 0 0 0 0 0 0 0 0 0 0
-0 0 -0 -0 -0 0 0 0 0 0 0 0 0 0 0 0 0 0 0 0 0 0 0 0 -0 -0 0 0 0 0 0 0 0 0 0 0 0 0 0 0 0 0 0 0
0 0 -0 -0 -0 0 0 0 0 0 0 0 0 0 0 0 0 0 0 0 0 0 0 0 0 0 0 0 0 0 0 0 0 0 0 0 0 0 0 0 0 0 0 0
-0 -0 -0 -0 0 0 0 0 0 0 0 0 0 0 0 0 0 0 0 0 0 0 0 0 0 0 0 0 0 0 0 0 0 0 0 0 0 0 0 0 0 0 0 0
0 -0 -0 -0 -0 0 0 0 0 0 0 0 0 0 0 0 0 0 0 0 0 0 0 0 -0 0 0 0 0 0 0 0 0 0 0 0 0 0 0 0 0 0 0 0
-0 -0 0 -0 -0 0 0 0 0 0 0 0 0 0 0 0 0 0 0 0 0 0 0 0 0 0 0 0 0 0 0 0 0 0 0 0 0 0 0 0 0 0 0 0
-0 -0 -0 0 -0 -0 -0 0 0 0 0 0 0 0 0 0 0 0 0 0 0 0 0 0 0 0 0 0 0 0 0 0 0 0 0 0 0 0 0 0 0 0 0 0
-0 -0 0 -0 -0 -0 -0 -0 -0 0 0 0 0 0 0 0 0 0 0 0 0 0 -0 -0 0 0 0 0 0 0 0 0 0 0 0 0 0 0 0 0 0 0 0 0
0 0 0 0 0 0 0 -0 0 0 0 0 0 0 0 0 0 0 0 0 0 0 -0 0 0 0 0 0 0 0 0 0 0 0 0 0 0 0 0 0 0 0 0 0
-0 -0 0 -0 0 0 0 0 0 0 -0 0 0 0 0 0 0 0 0 0 0 0 0 0 0 0 0 0 0 0 0 0 0 0 0 0 0 0 0 0 0 0 0 0
Wind_Speed_500mb
37 39 42 44 38 37 26 33 40 37 28 22 21 16 20 29 36 36 37 40 40 38 35 35 35 37 38 37 40 42 42 35 39 39 41 43 42 43 41 41 41 38 38 40
35 39 45 48 46 43 43 37 37 42 42 29 15 13 19 26 34 41 40 40 38 34 34 33 32 34 35 36 35 42 45 41 37 39 44 46 45 40 33 33 37 39 41 42
38 39 42 44 35 38 46 42 36 36 37 34 18 24 27 25 33 37 42 42 41 38 36 34 33 33 33 32 33 37 40 39 39 38 39 38 39 38 36 36 37 37 38 41
29 34 44 32 37 26 36 38 42 34 39 16 21 29 19 24 29 33 41 43 42 37 34 33 33 32 32 32 31 30 30 29 29 30 31 35 38 40 43 45 44 39 41 44
33 35 39 34 22 16 26 30 31 33 32 24 15 12 27 24 18 22 32 39 42 38 38 38 36 35 33 29 26 26 25 25 26 26 28 29 33 33 33 34 35 36 37 41
31 39 45 34 21 16 14 21 24 30 25 25 18 15 5 15 9 18 26 38 43 46 45 41 39 36 32 31 30 26 24 22 19 20 21 23 24 25 25 27 27 27 31 31
28 37 41 12 25 20 25 9 31 27 23 24 14 16 14 13 13 6 23 36 42 43 46 49 43 37 34 30 28 27 24 24 21 19 16 15 16 16 17 18 20 22 32 34
21 25 21 32 18 16 24 27 25 23 21 22 25 30 24 19 14 7 18 38 49 52 47 42 44 42 37 33 29 26 23 21 18 17 13 14 20 21 22 21 18 15 20 23
11 11 25 14 25 30 32 26 20 27 26 27 30 29 25 23 19 18 12 38 49 52 54 48 41 39 38 33 28 23 22 20 17 14 12 14 15 17 13 20 19 14 15 15
17 9 14 33 37 16 16 20 26 29 30 27 34 32 30 26 23 18 14 33 49 56 54 53 45 38 37 35 28 25 22 17 13 10 8 8 7 14 13 10 17 19 19 18
30 35 42 28 13 16 23 29 28 29 32 29 34 32 29 28 23 14 14 31 51 61 59 57 52 43 44 36 32 28 24 17 13 10 10 6 8 7 8 11 12 14 13 15
24 39 30 35 36 33 31 38 36 35 33 27 27 30 27 23 18 11 17 33 52 60 60 62 58 50 46 40 34 29 22 13 9 12 11 12 7 4 7 8 9 11 12 16
42 46 46 40 35 35 41 42 37 36 31 30 28 28 26 20 11 12 22 37 58 53 49 51 54 42 39 39 34 26 18 7 1 9 13 16 14 12 5 6 6 6 10 13
36 35 42 38 37 36 49 42 35 28 33 32 33 28 25 19 19 20 25 31 43 65 75 35 46 43 35 27 28 23 14 3 2 9 13 17 15 12 11 10 8 7 10 10
36 21 29 32 32 34 39 46 34 29 24 21 26 27 25 23 22 23 25 35 52 60 64 81 65 54 38 13 18 14 11 8 6 7 11 16 16 13 12 12 11 10 13 14
40 33 32 33 35 34 35 33 29 26 24 25 22 23 26 24 24 28 33 44 62 69 64 66 49 51 35 44 38 22 18 16 8 7 12 16 19 18 17 15 16 16 15 14
32 26 25 29 32 30 30 29 29 29 27 27 25 24 25 27 27 32 35 43 45 50 44 42 36 32 38 47 46 30 22 17 11 10 12 16 17 17 18 18 15 18 20 22
29 29 30 34 36 35 33 28 26 24 26 26 23 24 30 32 35 37 43 40 37 35 37 38 28 39 26 27 42 31 25 18 13 13 14 15 16 16 17 14 17 19 20 22
39 39 39 36 33 27 28 30 25 25 25 22 22 27 35 33 34 37 45 38 34 43 53 53 55 49 43 35 42 31 25 23 20 18 17 19 16 13 12 13 14 16 15 14
39 33 36 32 25 24 28 25 22 21 18 16 16 22 32 33 34 37 34 36 32 35 28 29 40 45 41 37 41 29 27 26 22 19 19 19 17 13 14 17 17 16 14 11
42 39 33 29 26 21 14 11 13 13 13 12 13 21 28 30 26 32 33 41 41 41 34 35 35 34 33 36 35 26 26 25 23 23 23 22 17 17 15 13 14 16 16 15
45 40 36 30 28 19 8 4 4 9 10 12 11 20 22 21 21 24 30 30 18 21 28 34 34 34 32 28 26 26 23 22 25 26 25 23 21 20 16 15 17 20 20 20
41 34 32 32 23 14 10 8 3 3 4 9 12 13 19 25 17 32 35 23 15 33 19 23 31 32 29 27 26 24 21 20 23 28 30 29 26 25 22 20 18 16 20 22
41 33 37 34 18 19 24 19 14 3 4 9 15 17 16 16 28 35 25 26 28 33 24 18 27 29 31 27 24 21 22 21 24 26 28 32 31 30 28 26 24 21 17 19
42 30 26 31 26 21 23 16 13 12 3 9 20 24 10 8 13 15 24 22 37 41 32 33 35 32 34 26 24 22 21 19 20 23 26 27 32 36 33 30 25 25 26 24
34 31 22 18 18 21 24 22 12 8 11 10 11 17 15 12 18 8 13 24 21 30 27 30 36 37 32 26 24 22 21 20 17 14 15 21 25 26 29 31 31 28 27 28
27 31 29 24 22 20 18 24 30 20 11 9 17 15 16 19 20 12 17 17 17 12 14 16 24 33 27 24 22 23 25 22 20 17 16 19 22 23 24 27 30 32 33 33
Wind_Direction_500mb
265 270 279 280 271 277 248 255 265 269 260 230 273 239 216 200 196 194 192 194 191 185 188 190 195 199 203 203 203 200 208 220 224 222 225 227 227 229 239 234 234 240 238 235
274 272 271 269 265 266 259 257 267 266 275 289 263 228 229 201 199 197 196 193 189 187 182 184 188 192 194 196 202 207 217 227 223 227 234 237 236 232 230 225 227 231 237 236
262 272 274 257 257 261 262 256 247 252 261 272 223 220 229 211 205 206 198 189 189 185 180 176 176 177 180 185 193 204 215 219 227 231 230 225 225 230 234 235 239 241 240 239
269 274 258 266 269 286 281 283 266 241 264 282 251 237 241 238 223 206 195 188 184 179 174 169 168 171 176 189 203 212 214 214 213 211 215 224 233 242 247 250 250 246 241 239
259 256 260 257 261 286 295 276 276 254 247 238 231 257 249 236 232 207 198 192 179 173 169 165 165 173 178 182 193 198 201 203 206 212 222 229 237 243 248 251 253 246 239 242
251 256 254 261 14 339 296 251 5 349 322 249 198 233 182 81 174 203 191 186 179 171 168 166 166 167 168 169 170 171 183 187 192 198 208 218 232 243 248 253 256 241 240 239
238 247 258 343 324 299 246 290 350 352 343 327 279 319 42 18 31 203 190 185 180 177 174 170 167 165 161 164 164 165 170 187 194 201 204 216 232 242 251 255 259 253 244 235
243 257 246 2 302 303 357 325 332 339 347 338 318 311 317 326 336 324 211 195 189 176 175 174 167 163 162 162 168 170 179 187 194 209 205 232 247 254 258 261 262 256 254 233
310 330 346 344 331 312 307 306 320 326 329 333 323 310 315 325 319 307 247 205 196 187 173 170 171 165 159 162 163 165 162 167 181 204 220 246 255 259 271 256 244 247 225 233
297 235 314 321 314 302 329 315 309 313 315 323 322 316 317 319 312 290 244 198 195 187 178 166 165 165 158 156 159 159 162 164 186 182 202 238 269 256 246 251 249 231 221 215
285 278 276 274 273 296 309 313 305 305 311 312 307 318 320 315 307 277 223 193 191 187 179 167 160 164 155 151 149 152 148 152 168 193 185 234 238 249 242 240 229 218 218 217
282 309 306 291 291 289 303 310 293 292 291 288 290 312 318 311 299 262 208 191 189 183 178 166 159 161 154 146 145 147 145 126 161 192 194 180 184 175 157 143 133 130 132 136
281 280 276 273 277 295 303 318 292 280 269 287 295 290 300 296 295 238 200 189 189 183 169 157 149 154 153 150 146 147 142 118 47 184 195 189 179 175 202 199 179 169 158 139
294 287 274 263 267 284 292 294 297 277 278 281 276 275 273 256 241 213 208 195 174 169 157 136 158 154 158 164 151 146 151 163 175 201 208 195 187 190 193 199 218 210 193 174
282 281 278 281 266 266 271 286 279 278 282 272 263 258 250 248 228 220 211 185 165 167 170 175 182 163 165 178 193 171 175 200 182 221 214 200 193 190 188 206 215 236 236 232
291 279 276 267 263 264 266 271 273 275 283 288 274 247 236 235 223 213 202 187 172 168 165 169 190 208 217 223 224 207 205 221 190 209 219 197 198 207 207 221 227 225 231 231
330 313 308 289 286 285 284 280 275 277 277 277 269 247 223 217 210 205 195 184 175 170 185 200 190 178 193 200 210 200 199 224 215 213 211 202 201 210 211 212 233 240 243 236
333 317 309 300 293 285 281 280 278 277 277 276 256 233 216 207 203 196 185 186 199 208 212 197 209 212 206 223 210 201 200 208 209 219 225 213 209 211 203 218 238 244 247 252
343 328 314 303 295 282 282 282 275 276 276 270 241 227 216 208 200 185 186 203 211 222 223 236 247 225 225 232 198 197 201 211 218 214 218 212 217 211 213 226 238 247 245 238
336 329 330 314 303 302 292 278 264 268 258 239 230 219 209 211 215 211 221 229 239 264 250 233 222 223 226 210 188 201 209 213 214 205 207 206 200 203 209 210 211 224 225 231
339 334 322 335 330 328 311 274 258 239 225 229 236 207 207 202 205 205 225 231 237 248 233 227 211 192 188 194 186 198 213 214 205 203 204 191 202 203 213 221 242 239 240 240
337 337 331 330 342 337 337 332 190 204 209 213 204 185 175 178 195 199 184 182 190 182 169 169 164 182 189 192 191 195 203 208 206 210 208 209 212 220 223 237 249 253 249 248
342 345 353 345 344 354 40 66 80 144 193 196 194 180 183 175 173 160 153 153 161 185 190 175 195 201 199 174 186 193 201 208 213 220 219 221 225 228 233 242 250 262 249 245
351 358 2 17 33 52 48 44 57 82 161 152 173 137 134 161 191 180 209 193 190 195 186 199 218 202 189 183 196 204 212 221 229 230 227 227 230 233 237 244 251 248 250 250
8 5 12 20 42 44 23 29 41 39 87 198 186 178 171 115 181 175 181 187 194 189 179 193 209 194 193 196 204 210 214 223 236 236 234 232 234 236 239 242 245 242 246 252
8 11 10 17 21 22 28 34 43 55 80 75 115 184 190 25 42 98 136 172 172 187 185 207 200 197 199 207 215 223 228 230 245 252 237 237 236 237 240 245 244 250 256 259
10 17 21 23 25 27 29 29 43 49 60 115 70 109 147 47 48 61 90 115 131 138 182 196 203 205 206 217 226 232 233 238 238 242 253 257 251 247 245 247 252 257 260 261
Wind_Speed_850mb
37 39 42 44 38 37 26 33 40 37 28 22 21 16 20 29 36 36 37 40 40 38 35 35 35 37 38 37 40 42 42 35 39 39 41 43 42 43 41 41 41 38 38 40
35 39 45 48 46 43 43 37 37 42 42 29 15 13 19 26 34 41 40 40 38 34 34 33 32 34 35 36 35 42 45 41 37 39 44 46 45 40 33 33 37 39 41 42
38 39 42 44 35 38 46 42 36 36 37 34 18 24 27 25 33 37 42 42 41 38 36 34 33 33 33 32 33 37 40 39 39 38 39 38 39 38 36 36 37 37 38 41
29 34 44 32 37 26 36 38 42 34 39 16 21 29 19 24 29 33 41 43 42 37 34 33 33 32 32 32 31 30 30 29 29 30 31 35 38 40 43 45 44 39 41 44
33 35 39 34 22 16 26 30 31 33 32 24 15 12 27 24 18 22 32 39 42 38 38 38 36 35 33 29 26 26 25 25 26 26 28 29 33 33 33 34 35 36 37 41
31 39 45 34 21 16 14 21 24 30 25 25 18 15 5 15 9 18 26 38 43 46 45 41 39 36 32 31 30 26 24 22 19 20 21 23 24 25 25 27 27 27 31 31
28 37 41 12 25 20 25 9 31 27 23 24 14 16 14 13 13 6 23 36 42 43 46 49 43 37 34 30 28 27 24 24 21 19 16 15 16 16 17 18 20 22 32 34
21 25 21 32 18 16 24 27 25 23 21 22 25 30 24 19 14 7 18 38 49 52 47 42 44 42 37 33 29 26 23 21 18 17 13 14 20 21 22 21 18 15 20 23
11 11 25 14 25 30 32 26 20 27 26 27 30 29 25 23 19 18 12 38 49 52 54 48 41 39 38 33 28 23 22 20 17 14 12 14 15 17 13 20 19 14 15 15
17 9 14 33 37 16 16 20 26 29 30 27 34 32 30 26 23 18 14 33 49 56 54 53 45 38 37 35 28 25 22 17 13 10 8 8 7 14 13 10 17 19 19 18
30 35 42 28 13 16 23 29 28 29 32 29 34 32 29 28 23 14 14 31 51 61 59 57 52 43 44 36 32 28 24 17 13 10 10 6 8 7 8 11 12 14 13 15
24 39 30 35 36 33 31 38 36 35 33 27 27 30 27 23 18 11 17 33 52 60 60 62 58 50 46 40 34 29 22 13 9 12 11 12 7 4 7 8 9 11 12 16
42 46 46 40 35 35 41 42 37 36 31 30 28 28 26 20 11 12 22 37 58 53 49 51 54 42 39 39 34 26 18 7 1 9 13 16 14 12 5 6 6 6 10 13
36 35 42 38 37 36 49 42 35 28 33 32 33 28 25 19 19 20 25 31 43 65 75 35 46 43 35 27 28 23 14 3 2 9 13 17 15 12 11 10 8 7 10 10
36 21 29 32 32 34 39 46 34 29 24 21 26 27 25 23 22 23 25 35 52 60 64 81 65 54 38 13 18 14 11 8 6 7 11 16 16 13 12 12 11 10 13 14
40 33 32 33 35 34 35 33 29 26 24 25 22 23 26 24 24 28 33 44 62 69 64 66 49 51 35 44 38 22 18 16 8 7 12 16 19 18 17 15 16 16 15 14
32 26 25 29 32 30 30 29 29 29 27 27 25 24 25 27 27 32 35 43 45 50 44 42 36 32 38 47 46 30 22 17 11 10 12 16 17 17 18 18 15 18 20 22
29 29 30 34 36 35 33 28 26 24 26 26 23 24 30 32 35 37 43 40 37 35 37 38 28 39 26 27 42 31 25 18 13 13 14 15 16 16 17 14 17 19 20 22
39 39 39 36 33 27 28 30 25 25 25 22 22 27 35 33 34 37 45 38 34 43 53 53 55 49 43 35 42 31 25 23 20 18 17 19 16 13 12 13 14 16 15 14
39 33 36 32 25 24 28 25 22 21 18 16 16 22 32 33 34 37 34 36 32 35 28 29 40 45 41 37 41 29 27 26 22 19 19 19 17 13 14 17 17 16 14 11
42 39 33 29 26 21 14 11 13 13 13 12 13 21 28 30 26 32 33 41 41 41 34 35 35 34 33 36 35 26 26 25 23 23 23 22 17 17 15 13 14 16 16 15
45 40 36 30 28 19 8 4 4 9 10 12 11 20 22 21 21 24 30 30 18 21 28 34 34 34 32 28 26 26 23 22 25 26 25 23 21 20 16 15 17 20 20 20
41 34 32 32 23 14 10 8 3 3 4 9 12 13 19 25 17 32 35 23 15 33 19 23 31 32 29 27 26 24 21 20 23 28 30 29 26 25 22 20 18 16 20 22
41 33 37 34 18 19 24 19 14 3 4 9 15 17 16 16 28 35 25 26 28 33 24 18 27 29 31 27 24 21 22 21 24 26 28 32 31 30 28 26 24 21 17 19
42 30 26 31 26 21 23 16 13 12 3 9 20 24 10 8 13 15 24 22 37 41 32 33 35 32 34 26 24 22 21 19 20 23 26 27 32 36 33 30 25 25 26 24
34 31 22 18 18 21 24 22 12 8 11 10 11 17 15 12 18 8 13 24 21 30 27 30 36 37 32 26 24 22 21 20 17 14 15 21 25 26 29 31 31 28 27 28
27 31 29 24 22 20 18 24 30 20 11 9 17 15 16 19 20 12 17 17 17 12 14 16 24 33 27 24 22 23 25 22 20 17 16 19 22 23 24 27 30 32 33 33
Wind_Direction_850mb
265 270 279 280 271 277 248 255 265 269 260 230 273 239 216 200 196 194 192 194 191 185 188 190 195 199 203 203 203 200 208 220 224 222 225 227 227 229 239 234 234 240 238 235
274 272 271 269 265 266 259 257 267 266 275 289 263 228 229 201 199 197 196 193 189 187 182 184 188 192 194 196 202 207 217 227 223 227 234 237 236 232 230 225 227 231 237 236
262 272 274 257 257 261 262 256 247 252 261 272 223 220 229 211 205 206 198 189 189 185 180 176 176 177 180 185 193 204 215 219 227 231 230 225 225 230 234 235 239 241 240 239
269 274 258 266 269 286 281 283 266 241 264 282 251 237 241 238 223 206 195 188 184 179 174 169 168 171 176 189 203 212 214 214 213 211 215 224 233 242 247 250 250 246 241 239
259 256 260 257 261 286 295 276 276 254 247 238 231 257 249 236 232 207 198 192 179 173 169 165 165 173 178 182 193 198 201 203 206 212 222 229 237 243 248 251 253 246 239 242
251 256 254 261 14 339 296 251 5 349 322 249 198 233 182 81 174 203 191 186 179 171 168 166 166 167 168 169 170 171 183 187 192 198 208 218 232 243 248 253 256 241 240 239
238 247 258 343 324 299 246 290 350 352 343 327 279 319 42 18 31 203 190 185 180 177 174 170 167 165 161 164 164 165 170 187 194 201 204 216 232 242 251 255 259 253 244 235
243 257 246 2 302 303 357 325 332 339 347 338 318 311 317 326 336 324 211 195 189 176 175 174 167 163 162 162 168 170 179 187 194 209 205 232 247 254 258 261 262 256 254 233
310 330 346 344 331 312 307 306 320 326 329 333 323 310 315 325 319 307 247 205 196 187 173 170 171 165 159 162 163 165 162 167 181 204 220 246 255 259 271 256 244 247 225 233
297 235 314 321 314 302 329 315 309 313 315 323 322 316 317 319 312 290 244 198 195 187 178 166 165 165 158 156 159 159 162 164 186 182 202 238 269 256 246 251 249 231 221 215
285 278 276 274 273 296 309 313 305 305 311 312 307 318 320 315 307 277 223 193 191 187 179 167 160 164 155 151 149 152 148 152 168 193 185 234 238 249 242 240 229 218 218 217
282 309 306 291 291 289 303 310 293 292 291 288 290 312 318 311 299 262 208 191 189 183 178 166 159 161 154 146 145 147 145 126 161 192 194 180 184 175 157 143 133 130 132 136
281 280 276 273 277 295 303 318 292 280 269 287 295 290 300 296 295 238 200 189 189 183 169 157 149 154 153 150 146 147 142 118 47 184 195 189 179 175 202 199 179 169 158 139
294 287 274 263 267 284 292 294 297 277 278 281 276 275 273 256 241 213 208 195 174 169 157 136 158 154 158 164 151 146 151 163 175 201 208 195 187 190 193 199 218 210 193 174
282 281 278 281 266 266 271 286 279 278 282 272 263 258 250 248 228 220 211 185 165 167 170 175 182 163 165 178 193 171 175 200 182 221 214 200 193 190 188 206 215 236 236 232
291 279 276 267 263 264 266 271 273 275 283 288 274 247 236 235 223 213 202 187 172 168 165 169 190 208 217 223 224 207 205 221 190 209 219 197 198 207 207 221 227 225 231 231
330 313 308 289 286 285 284 280 275 277 277 277 269 247 223 217 210 205 195 184 175 170 185 200 190 178 193 200 210 200 199 224 215 213 211 202 201 210 211 212 233 240 243 236
333 317 309 300 293 285 281 280 278 277 277 276 256 233 216 207 203 196 185 186 199 208 212 197 209 212 206 223 210 201 200 208 209 219 225 213 209 211 203 218 238 244 247 252
343 328 314 303 295 282 282 282 275 276 276 270 241 227 216 208 200 185 186 203 211 222 223 236 247 225 225 232 198 197 201 211 218 214 218 212 217 211 213 226 238 247 245 238
336 329 330 314 303 302 292 278 264 268 258 239 230 219 209 211 215 211 221 229 239 264 250 233 222 223 226 210 188 201 209 213 214 205 207 206 200 203 209 210 211 224 225 231
339 334 322 335 330 328 311 274 258 239 225 229 236 207 207 202 205 205 225 231 237 248 233 227 211 192 188 194 186 198 213 214 205 203 204 191 202 203 213 221 242 239 240 240
337 337 331 330 342 337 337 332 190 204 209 213 204 185 175 178 195 199 184 182 190 182 169 169 164 182 189 192 191 195 203 208 206 210 208 209 212 220 223 237 249 253 249 248
342 345 353 345 344 354 40 66 80 144 193 196 194 180 183 175 173 160 153 153 161 185 190 175 195 201 199 174 186 193 201 208 213 220 219 221 225 228 233 242 250 262 249 245
351 358 2 17 33 52 48 44 57 82 161 152 173 137 134 161 191 180 209 193 190 195 186 199 218 202 189 183 196 204 212 221 229 230 227 227 230 233 237 244 251 248 250 250
8 5 12 20 42 44 23 29 41 39 87 198 186 178 171 115 181 175 181 187 194 189 179 193 209 194 193 196 204 210 214 223 236 236 234 232 234 236 239 242 245 242 246 252
8 11 10 17 21 22 28 34 43 55 80 75 115 184 190 25 42 98 136 172 172 187 185 207 200 197 199 207 215 223 228 230 245 252 237 237 236 237 240 245 244 250 256 259
10 17 21 23 25 27 29 29 43 49 60 115 70 109 147 47 48 61 90 115 131 138 182 196 203 205 206 217 226 232 233 238 238 242 253 257 251 247 245 247 252 257 260 261